Regional Weather Roundup
Issued by NWS Newport/Morehead, NC

Current Version | Previous Version | Text Only | Print | Product List | Glossary On
Versions: 1 2 3 4 5 6 7 8 9 10 11 12 13 14 15 16 17 18 19 20 21 22 23 24 25 26 27 28 29 30 31 32 33 34 35 36 37 38 39 40 41 42 43 44 45 46 47 48 49 50
000
ASUS42 KMHX 081013
RWRMHX
WEATHER ROUNDUP FOR EASTERN NORTH CAROLINA
NATIONAL WEATHER SERVICE NEWPORT/MOREHEAD CITY NC
500 AM EST MON FEB 08 2016

NOTE: "FAIR" INDICATES FEW OR NO CLOUDS BELOW 12,000 FEET
WITH NO SIGNIFICANT WEATHER AND/OR OBSTRUCTIONS TO VISIBILITY

NCZ015>017-031-032-045>047-102-103-081100-
NORTH COAST

CITY           SKY/WX    TMP DP  RH WIND       PRES   REMARKS
EDENTON        CLEAR     39  27  62 NW8       29.74R
ELIZABETH CITY CLOUDY    38  28  67 NW12      29.71R
KITTY HAWK     CLOUDY    41  32  71 N10G26    29.64R
MANTEO         CLOUDY    40  33  74 N16G22    29.66R

$$

NCZ045>047-081-094-103-104-081100-
CENTRAL COAST

CITY           SKY/WX    TMP DP  RH WIND       PRES   REMARKS
FRISCO         CLOUDY    42  34  73 NW21G30   29.67R
SWANQUARTER      N/A     37 N/A N/A NW13      29.71R

$$

NCZ095-097-098-100-101-081100-
SOUTHERN COAST

CITY           SKY/WX    TMP DP  RH WIND       PRES   REMARKS
BEAUFORT       CLEAR     38  27  64 NW18      29.77R
CEDAR ISLAND     N/A     41 N/A N/A NW23      29.77R
JACKSONVILLE   CLEAR     36  24  62 NW12      29.80R
PINEY ISLAND   NOT AVBL
WILMINGTON     CLEAR     38  26  62 W8        29.84R


$$

NCZ011>013-027>030-043-044-078>080-089-090>093-098-081100-
COASTAL PLAIN

CITY           SKY/WX    TMP DP  RH WIND       PRES   REMARKS
AHOSKIE        CLEAR     35  21  56 CALM      29.77R
CLINTON        CLEAR     35  28  75 CALM      29.84R
ELIZABETHTOWN  CLEAR     36  28  71 W3        29.85R
GOLDSBORO      CLEAR     36  27  69 W8        29.80R
GREENVILLE     CLEAR     37  23  56 NW6       29.81R
HAVELOCK       CLEAR     37  24  59 W14       29.78R
KENANSVILLE      N/A     35  25  66 CALM      29.83R
KINSTON        CLEAR     36  25  64 W6        29.80R
NEW BERN       CLEAR     37  24  59 W7        29.79R
RICHLANDS      CLEAR     36  21  55 W3        29.81S
ROCKY MOUNT    CLEAR     34  24  67 W7        29.81R
WASHINGTON     CLEAR     37  23  58 NW7       29.76R
WHITEVILLE     CLEAR     36  28  70 CALM      29.86R

$$

AMZ130-135-150-152-154-156-158-170-250-252-270-ANZ085-086-088-633-658-670-081100-
MARINE OBSERVATIONS

STATION/POSITION TIME  TEMP    WIND        PRES    WAVE   SWELL
                       AIR SEA DIR/SP/G            HT/PER HT/PER
                 (UTC) (F)     (DEG/KT/KT) (MB)    (FT/S) (FT/S)
CHESAPEAKE LIGHT 0900   41     350/ 36/ 39 1003.4
64 E VA BEACH    0950   49 53  360/ 29/ 35  999.7   20/12  15/12
DUCK             0900   41 52  330/ 21/ 27 1002.8
2 E DUCK         0911      44                N/A    12/12   8/12
OREGON INLET     0900   41 45  330/ 21/ 30 1002.6
13E OREGON INLT  0900      47                N/A    17/12  11/12
HATTERAS CG      0900   42 46  320/ 28/ 32 1002.9
DIAMOND BUOY     0950   46 70  320/ 27/ 33 1003.3   13/12  10/12
CAPE LOOKOUT     NOT AVBL
BEAUFORT LAB     0900   40 44  310/  7/ 12 1005.9
30 SE NEW RVR IN 0908   47 58              1005.6
30 SE NEW RVR IN 0925      59                N/A    10/ 6   5/13
27 SE WRIGHTSVLE 0908   47 60  360/ 23/ 33 1006.7
5 SE WRIGHTSVLE  NOT AVBL
225 S CAPE HAT   0950   59 69  300/ 29/ 39   N/A    25/12  18/12
41 SE CHARLESTON 0950   53 66  300/ 12/ 16 1011.9    5/ 8   5/ 8

$$



USA.gov is the U.S. government's official web portal to all federal, state and local government web resources and services.